Wind_Speed
28 25 24 24 23 20 19 18 17 14 13 12 12 13 12 13 15 15 17 17 16 17 19 21 20 20 20 21 19 16 16 19 21 22 24 25 26 28 28 31 33 33 34 35 38 39 39 38 37 37 40 42 42 43
28 22 21 21 21 20 18 18 17 15 13 12 12 12 12 12 13 15 18 17 15 12 13 17 19 17 17 17 16 17 19 19 21 23 25 26 28 29 30 32 36 38 39 37 35 32 31 29 29 28 30 33 37 38
28 23 22 22 21 19 18 18 18 16 14 12 12 11 11 12 13 16 17 17 18 17 14 16 16 16 16 16 17 19 19 19 22 25 26 28 30 30 31 33 34 37 36 35 32 29 27 25 25 29 35 35 35 36
26 24 22 23 22 21 20 19 20 18 16 14 13 12 13 13 13 13 15 18 17 19 18 16 15 14 16 17 17 17 20 22 24 26 28 29 31 31 31 32 33 34 32 30 27 27 23 24 32 39 36 38 32 27
25 25 24 24 24 24 22 19 19 18 16 16 16 14 12 13 12 11 12 14 15 15 15 15 16 16 17 18 19 21 23 24 27 28 29 30 30 30 30 31 32 31 28 27 24 21 21 27 30 32 29 32 27 24
25 26 25 24 23 23 23 21 20 18 17 18 18 18 15 12 13 12 11 12 13 14 15 16 17 18 19 19 20 22 24 27 28 28 29 30 30 29 27 28 29 28 29 24 18 20 27 28 25 24 26 26 25 25
25 27 25 25 25 24 23 23 21 19 19 20 21 21 20 19 17 17 16 16 16 17 17 17 17 18 19 20 23 25 28 28 27 26 27 27 28 28 28 28 26 23 21 21 19 21 22 22 22 25 24 24 24 27
26 26 27 27 25 25 25 24 22 20 21 21 22 23 23 23 22 21 20 20 20 20 19 18 20 20 20 22 25 27 26 26 26 26 26 26 27 26 25 25 25 22 21 22 22 23 22 21 26 31 29 27 26 25
27 28 28 27 27 26 26 24 23 21 21 21 21 20 18 19 20 21 22 23 22 22 22 21 21 21 23 24 24 25 26 27 26 26 26 24 25 24 24 24 22 23 23 19 21 24 27 27 28 31 28 29 26 22
28 28 28 27 27 28 27 26 24 24 23 26 24 23 22 21 21 21 21 22 22 22 23 24 25 24 24 24 23 25 25 25 26 25 25 24 24 24 24 22 19 20 22 20 22 23 26 28 28 27 25 28 26 20
26 26 25 26 26 27 27 26 25 23 24 26 29 30 28 27 27 25 24 24 23 24 24 25 25 25 24 24 26 26 25 25 24 24 23 22 23 23 21 19 17 18 19 21 23 24 25 25 25 27 23 26 22 21
24 24 25 26 28 27 25 22 22 20 20 22 25 26 28 27 24 24 23 22 22 22 21 22 24 26 25 25 26 25 25 26 26 24 23 21 21 21 18 19 19 20 21 22 19 21 23 25 28 23 21 21 17 19
26 26 26 28 29 28 26 25 24 23 20 18 18 15 16 17 17 19 18 18 18 20 21 24 26 26 26 27 27 27 27 26 26 25 23 20 22 20 19 21 21 20 19 16 16 18 20 20 20 22 21 22 17 17
27 28 28 30 30 29 27 25 24 21 19 17 16 14 15 15 15 17 19 21 22 22 22 23 24 25 27 26 25 25 26 26 25 24 22 21 22 20 19 16 17 17 15 14 14 12 10 17 20 22 22 21 17 18
29 30 30 31 31 29 27 25 22 21 22 22 21 20 20 21 21 22 23 25 25 23 22 23 26 26 24 22 21 21 21 22 21 20 20 22 21 16 18 16 16 12 12 11 13 12 18 20 18 18 16 16 17 20
31 30 31 31 30 28 25 25 24 23 21 22 22 22 21 23 23 25 25 23 23 23 22 20 20 22 21 20 19 18 18 18 18 18 18 18 15 12 15 14 13 11 7 12 12 10 7 10 13 14 13 16 20 20
29 29 28 27 25 24 23 23 23 22 23 23 22 23 22 22 24 27 24 24 22 23 22 21 19 19 19 18 18 17 16 17 18 19 17 17 13 14 14 13 13 10 4 9 6 2 4 8 10 13 16 16 17 17
27 24 22 23 23 24 23 23 21 20 21 19 20 19 18 19 20 22 19 19 20 20 20 18 18 19 19 17 17 17 18 18 18 18 19 18 16 16 13 15 14 10 7 11 7 2 4 8 12 14 14 14 15 17
22 23 24 25 24 22 21 21 21 17 15 14 14 14 15 16 17 18 19 19 18 15 16 15 17 18 18 17 16 18 18 17 17 17 16 13 14 12 13 14 12 10 6 6 4 5 8 10 9 9 12 14 15 17
23 22 22 22 21 21 19 18 16 14 11 12 13 15 16 17 18 18 18 17 14 12 15 15 14 20 16 15 15 15 15 13 11 13 13 9 10 11 11 11 9 9 8 3 1 5 9 10 12 11 10 9 12 14
22 21 21 22 22 21 18 16 15 15 16 11 11 12 13 13 14 14 13 12 11 11 12 12 13 13 13 12 10 11 9 8 8 9 8 6 7 8 9 8 16 8 6 6 6 5 7 9 9 9 11 12 13 14
21 21 21 21 19 17 14 11 11 14 12 11 10 11 11 10 10 9 10 6 5 6 8 8 7 7 7 6 8 9 7 9 8 7 6 6 5 3 1 15 7 3 2 1 4 7 8 7 7 9 12 14 15 15
21 20 21 18 16 15 13 11 8 9 10 10 10 11 10 7 6 4 3 3 6 6 6 3 4 5 6 7 8 9 11 8 8 8 6 4 5 6 4 2 1 3 2 3 6 7 8 9 11 14 15 14 12 12
21 21 18 16 15 15 14 12 10 9 9 9 9 6 4 3 4 5 4 4 4 3 3 4 5 6 7 8 9 9 11 9 9 9 8 4 7 5 1 2 2 2 4 6 8 10 11 11 10 10 12 13 12 11
20 18 16 15 14 16 13 11 9 9 9 9 8 7 6 6 6 6 5 5 3 5 2 4 7 9 9 9 5 4 5 7 4 5 6 10 11 8 5 6 8 8 8 9 10 12 14 15 14 11 10 11 11 13
15 14 14 13 14 12 10 9 9 9 10 9 7 7 7 7 7 6 6 5 4 3 5 7 6 7 8 3 1 4 5 4 4 11 12 8 10 7 6 8 9 10 10 11 11 9 9 11 13 15 15 17 17 16
14 12 12 11 11 11 10 9 9 8 8 10 10 9 9 9 7 6 6 5 5 5 5 4 0 2 6 7 4 8 5 9 7 11 10 8 11 10 7 7 7 6 6 8 10 12 14 16 17 19 21 22 23 25
8 8 9 10 9 8 9 12 15 14 11 12 13 13 13 13 11 8 6 6 5 3 3 3 3 4 5 5 9 8 12 11 5 3 7 2 4 4 4 3 4 8 10 13 14 16 20 22 25 26 28 30 31 33
6 8 9 10 10 13 14 9 8 10 10 10 11 12 11 6 6 10 7 6 4 6 4 4 5 4 3 6 8 6 5 5 5 4 2 5 1 3 6 9 11 14 17 21 23 25 25 27 28 30 33 34 34 35
7 7 8 10 9 7 10 12 12 11 11 9 8 7 5 5 6 7 4 4 7 5 5 7 6 4 2 3 3 4 3 1 4 5 6 6 7 10 13 15 18 21 24 26 26 28 30 32 31 29 25 25 27 28
5 6 7 8 9 11 11 9 8 9 6 1 4 4 6 9 9 8 9 9 7 4 7 5 4 2 2 3 2 1 1 2 2 4 6 8 10 13 16 20 24 26 29 31 31 28 22 20 21 20 20 22 23 24
3 4 5 8 13 11 7 7 7 6 8 10 12 13 13 14 15 15 12 9 8 7 6 7 6 1 2 4 2 3 2 2 2 5 8 10 14 17 20 24 28 26 22 19 17 14 13 14 16 18 19 20 21 22
4 3 1 7 11 11 7 7 9 12 15 18 21 20 17 14 12 9 8 7 6 5 5 5 3 3 2 1 1 3 4 6 8 10 12 14 18 21 20 13 12 13 13 13 12 12 14 16 19 20 21 21 20 20
Wind_Direction
324 313 321 320 320 312 310 305 295 285 278 264 261 259 251 246 242 240 238 238 245 249 246 247 245 244 251 256 258 259 266 273 279 285 289 292 293 292 293 292 294 290 286 287 288 289 287 288 286 285 284 282 280 275
330 319 318 322 327 320 313 307 296 285 268 263 255 252 256 259 259 248 235 235 237 247 246 246 245 244 245 249 256 266 273 279 287 291 292 294 295 296 298 298 296 295 296 297 296 293 292 289 282 281 283 285 281 282
325 319 314 319 320 318 315 312 304 288 266 258 249 247 262 274 267 255 242 239 238 247 259 246 240 239 248 257 264 271 276 282 290 293 294 296 296 299 299 296 295 295 299 299 299 296 293 283 276 290 293 290 286 284
327 322 311 306 314 313 308 302 308 297 263 255 243 254 270 283 273 268 247 241 248 245 248 243 244 253 261 267 275 284 288 289 290 294 296 296 298 300 297 296 295 299 301 302 295 292 292 282 284 294 303 305 303 294
325 327 320 308 302 306 305 302 298 297 266 257 249 257 272 284 277 266 250 245 241 234 235 244 255 267 275 280 281 288 292 292 294 296 297 299 299 298 298 297 299 302 303 295 291 287 286 291 296 298 302 306 301 300
324 327 321 320 312 302 299 297 292 286 273 259 255 259 259 273 270 257 248 240 233 231 241 255 266 273 276 281 286 289 289 292 296 298 298 299 300 299 298 300 304 303 297 294 289 285 290 294 300 309 307 300 304 301
323 323 321 317 316 310 302 296 293 279 275 264 259 257 260 263 266 254 250 246 245 248 257 265 270 275 285 289 286 288 293 297 297 299 300 300 300 297 299 299 299 297 290 290 286 289 303 304 305 311 320 316 305 299
320 323 324 322 315 311 305 297 290 280 274 266 264 263 263 263 259 251 248 248 250 257 263 266 275 284 286 283 287 291 294 295 295 295 294 295 292 293 294 298 302 300 294 289 289 292 304 314 326 326 329 322 318 310
314 317 317 321 324 320 313 295 287 281 267 267 262 261 263 256 250 247 249 253 258 261 266 271 281 283 283 284 287 289 291 290 292 291 294 294 291 293 296 304 303 296 286 282 295 303 306 318 324 323 322 315 321 316
311 314 317 318 317 316 317 315 292 278 272 262 259 255 255 251 251 250 252 254 259 264 268 277 281 283 283 285 285 285 286 288 290 290 292 291 291 291 298 301 297 296 293 290 279 296 307 313 318 322 322 321 321 315
313 315 320 322 319 318 314 314 314 289 274 267 261 258 257 254 250 248 251 256 261 266 274 280 283 283 284 285 285 287 289 288 285 285 285 285 284 289 292 293 297 305 298 295 295 297 309 319 325 323 323 328 326 321
314 315 319 322 323 322 316 312 314 318 310 288 268 266 266 260 256 254 254 255 262 272 278 280 280 282 284 285 287 289 287 286 285 285 283 282 282 282 284 286 293 297 300 297 298 302 313 324 330 334 336 337 334 329
309 309 311 314 316 316 315 309 302 304 300 310 304 289 268 260 260 263 270 273 275 277 280 281 281 282 285 287 287 287 285 284 284 281 279 277 271 272 280 284 290 292 292 293 293 312 325 332 339 342 343 346 333 335
306 306 309 310 311 310 311 310 306 300 291 291 298 303 302 301 289 282 278 276 274 277 275 271 273 277 280 281 282 278 279 279 275 275 279 271 268 282 287 287 293 286 288 292 303 320 354 350 342 349 343 347 350 342
305 307 307 307 307 306 305 304 305 299 291 290 290 285 284 282 280 279 278 279 279 277 277 277 278 280 280 282 280 278 276 275 280 279 269 267 274 283 280 284 295 278 282 293 301 293 303 324 336 342 345 0 6 3
306 306 307 307 306 305 304 301 297 296 294 290 289 287 282 282 287 285 281 278 278 278 277 275 274 278 282 282 280 278 279 280 280 277 269 272 276 268 280 277 270 272 282 305 304 298 313 336 336 327 344 357 357 359
305 306 308 308 310 310 307 303 297 293 287 286 286 284 288 286 283 281 281 281 279 273 277 277 274 276 278 278 277 280 278 273 269 268 264 262 271 278 279 269 253 246 280 275 289 305 347 339 338 345 356 352 358 4
306 307 309 311 313 310 307 303 299 295 292 293 290 290 286 286 285 283 283 278 277 280 280 280 275 277 282 279 278 277 275 276 275 273 271 276 283 278 254 255 249 244 261 243 258 309 317 338 336 332 339 345 352 1
305 308 312 315 315 314 311 305 299 296 295 297 300 300 293 288 285 287 286 282 281 275 272 274 280 283 282 281 276 273 274 278 279 278 277 281 273 255 251 258 253 253 219 210 264 295 315 337 332 327 339 351 353 355
306 311 315 317 316 313 311 309 307 302 304 311 305 298 299 300 295 291 286 286 283 267 264 257 261 275 283 280 274 274 274 275 277 278 280 277 252 249 263 235 223 254 238 268 224 325 340 335 324 337 348 348 347 347
306 311 315 316 315 313 309 294 292 295 301 305 297 302 308 303 301 296 293 287 278 266 264 270 272 275 270 264 259 263 267 283 285 284 278 245 250 281 246 229 208 249 259 277 297 328 329 313 316 339 353 354 357 351
304 307 312 315 316 316 319 309 290 290 294 300 304 311 306 306 303 298 298 303 294 278 283 273 279 280 283 270 252 238 278 279 301 295 259 245 255 232 206 192 166 258 233 210 312 308 293 288 290 315 327 336 339 340
301 305 308 309 310 315 319 317 306 295 290 290 298 307 304 308 316 321 284 281 294 281 274 261 287 296 292 268 258 252 256 273 299 280 221 227 212 193 231 260 105 109 131 236 267 297 314 315 313 318 318 319 325 325
300 301 299 298 297 310 313 303 296 296 293 299 305 294 277 293 314 316 309 299 279 278 309 291 329 348 332 316 305 275 257 266 275 259 227 209 163 221 70 37 334 311 301 318 324 311 312 318 318 316 315 317 330 335
300 298 296 295 296 307 305 300 292 290 291 301 302 280 266 274 299 319 328 321 276 221 296 300 300 316 317 320 308 253 211 197 181 221 184 140 172 194 277 291 304 306 310 309 318 323 322 322 323 322 316 317 317 319
299 296 295 296 300 304 299 296 292 294 295 293 282 267 266 267 280 296 315 309 265 261 261 289 295 338 342 350 29 143 172 194 135 122 154 163 207 240 295 314 312 320 321 321 319 320 316 307 310 315 314 311 310 311
296 296 299 298 298 298 296 293 294 296 292 286 281 275 271 269 278 284 286 281 261 263 256 268 274 352 357 9 161 165 137 108 131 173 140 160 196 232 271 306 322 325 336 333 330 329 326 318 316 314 313 309 304 303
285 295 300 306 304 302 303 304 302 296 290 282 277 272 267 262 259 259 263 258 243 251 199 187 157 111 46 38 144 162 134 98 25 82 131 279 297 303 328 355 339 326 329 322 321 323 316 312 312 310 308 305 304 304
289 304 307 307 304 306 305 302 307 302 292 286 282 271 270 278 251 225 239 235 221 170 160 151 170 124 91 70 70 82 115 158 202 248 184 143 111 325 316 314 312 314 314 311 313 314 310 307 307 309 312 314 313 311
313 317 319 317 322 325 317 316 313 310 308 293 261 247 254 251 206 181 177 190 183 164 173 177 177 183 144 110 114 118 106 297 237 239 253 252 293 300 308 308 305 305 306 306 308 309 311 317 319 321 317 308 306 308
332 338 358 3 354 349 341 330 320 320 319 271 183 170 159 147 149 152 148 154 171 197 156 154 167 192 221 227 215 197 277 300 286 273 271 277 287 295 300 303 305 308 312 316 320 323 321 317 321 326 329 329 330 332
338 34 62 42 9 351 351 10 19 77 91 105 112 118 122 121 116 108 102 98 108 125 139 139 132 138 129 132 82 347 341 11 349 314 305 306 307 307 310 319 322 320 322 328 335 346 355 360 359 354 353 356 359 0
171 165 331 12 8 16 35 61 90 106 113 120 120 114 111 107 103 98 95 92 93 86 106 130 154 211 201 103 330 315 322 316 311 313 315 314 314 320 328 343 4 19 21 23 24 20 15 12 11 11 10 10 11 12
Height
5823 5820 5817 5813 5810 5807 5805 5803 5801 5801 5800 5801 5801 5801 5802 5803 5804 5805 5805 5806 5808 5808 5809 5809 5811 5812 5813 5813 5814 5815 5815 5814 5813 5812 5811 5810 5808 5806 5804 5802 5800 5798 5794 5791 5787 5783 5779 5775 5771 5767 5762 5756 5754 5753
5819 5816 5813 5810 5807 5804 5801 5799 5798 5797 5796 5797 5797 5797 5798 5799 5799 5800 5800 5801 5803 5804 5804 5804 5805 5807 5807 5808 5809 5809 5809 5808 5806 5805 5804 5802 5800 5798 5796 5792 5787 5784 5781 5779 5777 5773 5769 5764 5760 5756 5752 5750 5746 5743
5815 5811 5809 5806 5803 5801 5798 5796 5794 5793 5793 5793 5793 5794 5795 5795 5794 5794 5795 5797 5798 5799 5800 5800 5800 5801 5802 5803 5804 5803 5802 5802 5800 5798 5797 5794 5792 5790 5786 5783 5779 5774 5772 5768 5765 5763 5759 5754 5751 5748 5744 5741 5737 5734
5811 5807 5804 5802 5799 5797 5794 5792 5790 5789 5789 5789 5790 5790 5791 5790 5789 5789 5790 5791 5793 5794 5794 5795 5795 5797 5797 5797 5796 5796 5795 5794 5794 5792 5789 5786 5784 5781 5777 5774 5770 5767 5764 5760 5757 5754 5752 5748 5744 5738 5735 5729 5724 5720
5807 5803 5799 5796 5794 5792 5790 5788 5786 5784 5784 5785 5785 5786 5786 5786 5785 5785 5785 5786 5787 5790 5790 5790 5790 5791 5791 5791 5790 5789 5788 5786 5785 5783 5780 5778 5775 5772 5769 5765 5763 5760 5756 5753 5750 5747 5745 5742 5738 5731 5728 5722 5717 5714
5802 5799 5795 5791 5788 5786 5785 5783 5781 5780 5780 5780 5781 5781 5782 5782 5782 5782 5782 5783 5783 5785 5786 5786 5786 5786 5785 5785 5784 5782 5780 5779 5777 5774 5771 5768 5766 5764 5761 5757 5755 5752 5748 5745 5743 5741 5738 5735 5731 5727 5723 5717 5712 5707
5798 5794 5790 5787 5784 5781 5779 5777 5775 5774 5774 5774 5775 5775 5776 5777 5777 5778 5779 5779 5779 5780 5780 5781 5780 5779 5779 5778 5776 5774 5772 5770 5768 5766 5763 5761 5758 5756 5753 5751 5748 5745 5742 5739 5738 5736 5733 5727 5724 5720 5715 5711 5706 5701
5793 5789 5786 5782 5778 5775 5773 5771 5769 5768 5768 5768 5768 5768 5768 5769 5770 5771 5772 5772 5773 5774 5774 5774 5774 5774 5772 5770 5768 5766 5764 5762 5761 5758 5757 5754 5751 5748 5747 5744 5741 5739 5736 5733 5731 5728 5726 5723 5717 5710 5707 5702 5699 5694
5788 5785 5781 5777 5773 5770 5767 5764 5763 5762 5762 5761 5761 5761 5761 5762 5762 5764 5765 5765 5766 5768 5766 5766 5766 5766 5764 5762 5760 5759 5757 5755 5754 5751 5749 5747 5743 5741 5739 5737 5735 5732 5730 5728 5726 5722 5718 5714 5710 5705 5700 5695 5691 5687
5782 5779 5775 5772 5768 5765 5762 5758 5756 5755 5754 5754 5754 5754 5754 5754 5755 5757 5758 5758 5758 5758 5758 5758 5757 5757 5757 5755 5753 5752 5750 5748 5745 5744 5741 5739 5736 5734 5733 5731 5729 5727 5725 5723 5720 5719 5715 5712 5706 5701 5696 5690 5685 5681
5777 5774 5770 5766 5763 5759 5756 5753 5750 5748 5746 5745 5745 5746 5746 5746 5747 5747 5748 5750 5750 5750 5750 5749 5748 5747 5747 5746 5744 5743 5741 5739 5738 5737 5735 5732 5730 5728 5726 5725 5724 5722 5719 5717 5715 5713 5711 5707 5702 5697 5692 5685 5680 5675
5771 5768 5765 5761 5758 5754 5751 5748 5745 5743 5739 5738 5737 5737 5738 5737 5738 5739 5739 5740 5740 5741 5741 5741 5740 5738 5738 5737 5735 5734 5733 5731 5730 5729 5727 5725 5723 5721 5721 5719 5719 5717 5715 5712 5711 5709 5707 5702 5697 5691 5687 5680 5673 5671
5766 5763 5759 5756 5752 5748 5745 5742 5740 5738 5735 5733 5732 5730 5730 5730 5731 5732 5733 5734 5734 5733 5733 5732 5731 5730 5729 5728 5727 5725 5724 5723 5721 5720 5719 5719 5717 5716 5716 5715 5713 5711 5710 5708 5706 5706 5703 5697 5693 5689 5683 5678 5672 5669
5759 5756 5753 5750 5746 5743 5739 5736 5734 5732 5731 5729 5727 5726 5725 5726 5726 5726 5727 5727 5727 5726 5725 5724 5724 5723 5721 5720 5719 5717 5716 5715 5713 5713 5713 5711 5710 5711 5710 5709 5708 5705 5705 5704 5703 5703 5699 5695 5691 5687 5683 5677 5671 5668
5753 5749 5746 5742 5739 5735 5732 5730 5728 5725 5724 5723 5722 5720 5719 5719 5718 5719 5719 5718 5718 5718 5718 5716 5715 5714 5713 5712 5711 5710 5709 5708 5708 5707 5706 5704 5705 5706 5704 5704 5702 5701 5700 5699 5699 5698 5695 5692 5689 5686 5682 5677 5672 5668
5745 5742 5738 5734 5731 5728 5725 5723 5720 5719 5717 5716 5714 5713 5712 5711 5711 5710 5711 5710 5709 5708 5708 5708 5707 5706 5705 5704 5704 5703 5703 5702 5701 5701 5700 5699 5700 5701 5700 5699 5698 5698 5697 5695 5695 5694 5692 5689 5687 5685 5681 5676 5672 5669
5738 5734 5731 5727 5724 5720 5718 5715 5713 5711 5709 5708 5708 5706 5705 5704 5703 5701 5702 5702 5702 5701 5701 5700 5699 5698 5698 5697 5698 5697 5696 5695 5694 5693 5694 5694 5696 5696 5695 5694 5694 5694 5693 5693 5692 5691 5690 5688 5685 5682 5679 5676 5673 5670
5731 5728 5724 5721 5718 5714 5711 5708 5707 5705 5703 5701 5700 5700 5698 5697 5695 5694 5695 5695 5694 5694 5693 5693 5692 5692 5692 5692 5691 5691 5690 5690 5689 5688 5689 5690 5691 5690 5690 5689 5689 5690 5690 5690 5690 5689 5688 5687 5685 5681 5678 5675 5672 5670
5725 5722 5718 5715 5711 5708 5705 5702 5700 5699 5698 5696 5695 5694 5693 5692 5691 5690 5689 5689 5689 5688 5688 5687 5687 5687 5687 5686 5686 5685 5685 5684 5684 5684 5684 5685 5684 5684 5685 5685 5685 5686 5687 5687 5687 5686 5685 5686 5684 5681 5678 5674 5671 5669
5719 5716 5713 5709 5706 5703 5701 5699 5696 5694 5694 5693 5691 5689 5687 5686 5685 5684 5683 5682 5682 5683 5683 5682 5682 5682 5682 5681 5681 5681 5680 5680 5680 5680 5680 5680 5679 5680 5681 5681 5682 5682 5682 5684 5684 5684 5683 5682 5681 5679 5677 5674 5672 5669
5713 5710 5707 5705 5701 5698 5696 5693 5692 5690 5689 5689 5688 5686 5684 5682 5680 5679 5678 5678 5678 5678 5678 5678 5677 5677 5677 5677 5677 5677 5678 5678 5676 5676 5677 5676 5677 5678 5678 5678 5679 5680 5681 5682 5682 5682 5681 5680 5679 5677 5675 5673 5671 5667
5707 5704 5702 5699 5696 5694 5691 5689 5687 5686 5685 5685 5683 5682 5680 5679 5678 5677 5676 5675 5675 5675 5675 5674 5674 5674 5674 5673 5672 5673 5675 5675 5674 5673 5674 5675 5676 5675 5675 5676 5678 5679 5680 5679 5680 5680 5680 5680 5679 5676 5674 5672 5670 5667
5702 5699 5697 5694 5693 5690 5689 5686 5685 5683 5682 5681 5680 5679 5678 5676 5676 5675 5674 5674 5673 5673 5672 5672 5672 5672 5671 5671 5671 5671 5671 5672 5671 5670 5672 5673 5673 5673 5674 5676 5676 5677 5678 5680 5679 5678 5677 5677 5676 5674 5672 5669 5667 5665
5696 5694 5692 5690 5688 5687 5684 5682 5681 5680 5679 5678 5678 5677 5676 5676 5675 5674 5673 5672 5672 5672 5671 5671 5671 5670 5669 5667 5667 5667 5668 5669 5668 5668 5669 5671 5672 5673 5674 5676 5676 5677 5677 5677 5677 5676 5675 5674 5673 5671 5669 5667 5665 5663
5691 5689 5688 5685 5684 5682 5680 5679 5678 5677 5676 5676 5675 5674 5674 5674 5673 5673 5672 5671 5671 5671 5671 5671 5670 5669 5667 5666 5665 5665 5665 5667 5668 5668 5668 5670 5672 5674 5675 5675 5675 5675 5675 5674 5674 5674 5672 5670 5669 5668 5666 5665 5663 5660
5685 5684 5683 5681 5680 5678 5677 5676 5675 5674 5673 5672 5672 5671 5671 5671 5671 5672 5671 5671 5670 5670 5670 5669 5669 5668 5667 5665 5665 5665 5667 5667 5667 5667 5671 5673 5673 5674 5675 5675 5674 5674 5672 5672 5671 5670 5669 5667 5666 5664 5663 5661 5659 5657
5681 5680 5679 5677 5676 5675 5674 5673 5672 5671 5670 5669 5668 5668 5668 5668 5669 5669 5669 5668 5668 5669 5668 5668 5668 5668 5667 5666 5665 5667 5668 5669 5669 5670 5672 5673 5673 5673 5673 5673 5673 5672 5671 5670 5669 5667 5666 5665 5663 5660 5658 5656 5653 5651
5677 5676 5675 5675 5673 5672 5671 5670 5668 5666 5665 5664 5664 5664 5664 5664 5665 5666 5666 5666 5666 5666 5666 5667 5668 5668 5668 5667 5667 5668 5669 5670 5670 5671 5672 5673 5673 5673 5672 5673 5673 5672 5670 5667 5666 5665 5662 5660 5657 5655 5652 5649 5647 5644
5675 5674 5673 5671 5670 5669 5667 5665 5664 5663 5662 5661 5660 5659 5660 5660 5660 5662 5663 5664 5664 5665 5666 5666 5668 5668 5668 5668 5669 5670 5671 5671 5671 5671 5673 5673 5673 5674 5673 5672 5671 5669 5666 5663 5662 5660 5657 5655 5652 5648 5645 5641 5637 5633
5673 5672 5670 5669 5667 5665 5664 5662 5660 5659 5657 5656 5655 5656 5657 5657 5658 5660 5662 5664 5665 5665 5666 5667 5667 5668 5669 5670 5670 5671 5671 5672 5672 5673 5673 5673 5672 5671 5671 5669 5667 5665 5662 5660 5657 5654 5651 5647 5644 5641 5637 5633 5629 5624
5671 5670 5669 5667 5666 5663 5661 5659 5657 5655 5653 5652 5654 5655 5655 5656 5658 5660 5661 5663 5664 5665 5666 5667 5668 5669 5669 5670 5670 5671 5671 5671 5671 5671 5671 5671 5671 5669 5668 5666 5662 5659 5656 5652 5649 5646 5643 5640 5637 5634 5631 5627 5622 5617
5670 5670 5669 5667 5666 5664 5661 5659 5657 5656 5656 5656 5656 5657 5659 5660 5662 5663 5664 5665 5666 5666 5667 5668 5669 5669 5669 5669 5669 5671 5671 5671 5671 5671 5670 5669 5668 5666 5663 5660 5657 5653 5650 5646 5644 5642 5640 5637 5635 5632 5628 5624 5619 5615
5670 5670 5669 5668 5667 5665 5663 5662 5661 5660 5661 5661 5662 5664 5665 5666 5666 5667 5667 5668 5668 5668 5668 5669 5669 5669 5669 5670 5671 5671 5671 5670 5669 5669 5667 5665 5663 5661 5659 5656 5654 5651 5648 5647 5645 5643 5640 5637 5634 5631 5628 5624 5621 5617